Regional Weather Roundup
Issued by NWS

Home | Current Version | Previous Version | Text Only | Print | Product List | Glossary Off
Versions: 1 2 3 4 5 6 7 8 9 10 11 12 13 14 15 16 17 18 19 20 21 22 23 24 25 26 27 28 29 30 31 32 33 34 35 36 37 38 39 40 41 42 43 44 45 46 47 48 49 50

000
ASUS43 KLMK 212010
RWRKY
KENTUCKY REGIONAL WEATHER ROUNDUP
NATIONAL WEATHER SERVICE LOUISVILLE KY
400 PM EDT SUN SEP 21 2014

NOTE "FAIR" INDICATES FEW OR NO CLOUDS BELOW 12,000 FEET
WITH NO SIGNIFICANT WEATHER AND/OR OBSTRUCTIONS TO VISIBILITY.

KYZ001>023-026-027-061>063-070>075-212100-
WESTERN AND SOUTH CENTRAL KENTUCKY

CITY           SKY/WX    TMP DP  RH WIND       PRES   REMARKS
PADUCAH        SUNNY     83  50  31 NW8G17    29.97F
HENDERSON      SUNNY     81  46  30 W17G24    29.96S
OWENSBORO      SUNNY     80  48  32 NW12G21   29.94F
HOPKINSVILLE   SUNNY     83  63  50 W13G24    29.94F
BOWLING GREEN  MOSUNNY   83  63  50 W13       29.92S
GLASGOW        MOSUNNY   82  63  53 W12G18    29.91S
$$

KYZ024-025-028>034-038-045-046-053-212100-
NORTH CENTRAL KENTUCKY

CITY           SKY/WX    TMP DP  RH WIND       PRES   REMARKS
LOUISVILLE/SDF MOSUNNY   80  47  31 W20G28    29.90S
LOUISVILLE/LOU SUNNY     78  46  32 NW10      29.90S
FORT KNOX      SUNNY     78  51  39 W15G21    29.91S
$$

KYZ035>037-039>044-047>052-055>060-089>105-212100-
NORTHEAST KENTUCKY

CITY           SKY/WX    TMP DP  RH WIND       PRES   REMARKS
LEXINGTON      MOSUNNY   81  54  39 W20G28    29.87R
COVINGTON      MOSUNNY   77  47  34 NW18G28   29.86S
FRANKFORT      SUNNY     78  46  32 W8G26     29.88R
$$

KYZ054-064>069-076>088-106>120-212100-
SOUTHEAST KENTUCKY

CITY           SKY/WX    TMP DP  RH WIND       PRES   REMARKS
JACKSON        PTSUNNY   76  66  71 CALM      29.87F
LONDON         MOSUNNY   80  65  59 W16       29.90F
SOMERSET       MOSUNNY   79  64  61 SW16      29.90F
MIDDLESBORO    CLOUDY    75  70  84 E3        29.91F
MONTICELLO     PTCLDY    82  66  58 SW10      29.92F
$$




USA.gov is the U.S. government's official web portal to all federal, state and local government web resources and services.